STARLINK-32421, 61628

Orbit data source: Space-Track

STARLINK-32421, 61628 is a payload satellite owned by SpaceX/Seattle (US) in LEO that was launched on Wed, 23 Oct 2024 UTC via an FALCON 9 launch vehicle from the Air Force Eastern Test Range (AFETR). Payload-class satellites include a variety of spacecraft equipped with specific instruments for various scientific and technological missions. These include communications satellites like Starlink; space stations such as the ISS; scientific satellites like the Hubble; Earth observation satellites from companies like Planet Labs, Umbra, and HawkEye 360; GPS; miniature CubeSats for education and research; and military/defense satellites.

Loading next visibility...
Identifier
61628, 2024-191H
Orbit
LEO
Country
Flag of USUS
Related business
Manufacturer
SpaceX/Seattle
Mission
Operational Commercial Communications
Bus & Motor
STARLINK V2M, Unknown motor
Mass
730 kg wet, ~700 kg dry
Launch date (UTC)
2024-10-23 (2 years ago)
Launch vehicle
FALCON 9
Launch site
Air Force Eastern Test Range (AFETR)
Object type
Payload
Rocket body
Debris
Shape & HBR
Box + 2 Pan, 17.7 m
Radar Cross Section
33.884 m², Large (>1 m²)

Expand to show TLE details & history
Last TLE update: 7 hours ago

TLE from 7 hours ago
0 STARLINK-32421
1 61628U 24191H   26124.52016666  .00000289  00000-0  20035-4 0  9990
2 61628  43.0019 199.3177 0000887 270.9950  89.0800 15.27570597 86078
Epoch: 2026-05-04T12:29Z
TLE epoch observation values (Epoch: 2026-05-04T12:29:02.399Z)
Latitude
-0.00002°
Longitude
149.6495°
Altitude
482.843 km
Speed
7.626 km/s
True Right ascension
13h 17m 16s
True Declination
0° 00' 00"
Sunlit
Object was in full shadow at epoch
Visualization orbit readout
Latitude
Unknown
Longitude
Unknown
Altitude
Unknown
Speed
Unknown
Apparent Right ascension
Unknown
Apparent Declination
Unknown
Sunlit
N/A
Visualization observer readout
Local Sidereal Time
03:13:30
Azimuth
Unknown
Elevation
Unknown
Doppler factor
Unknown
Orbital elements
Apogee altitude
485.631 km
Perigee altitude
484.413 km
Semi-major axis
6,863.159 km
Eccentricity
0.00009
Inclination
43.0019°
RAAN
199.3177°
Arg. of periapsis
270.995°
True anomaly
89.09016°
Mean anomaly
89.08°
Eccentric anomaly
89.08508°
Mean motion
3.81731 °/min
Orbital period
94.31 mins
BSTAR
0.000020035
Loading maneuver chart data...
Computing Atmospheric mass density...
Loading historical data...
Loading historical data...
Loading historical data...
Loading historical data...
Loading historical data...
Loading historical data...
Loading historical data...

Documentation

Showing up to 5 results
|